Sevilla, Spain

5:13 AM CET on November 22, 2017 (GMT +0100)
San Pablo

Weather History for LEZL - February, 2013

Change the Weather History Date:

Wednesday, February 13, 2013

  Actual Average Record
Temperature  
Mean Temperature 52 °F -  
Max Temperature 62 °F 66 °F 73 °F (2002)
Min Temperature 41 °F 45 °F 32 °F (2012)
Degree Days  
Heating Degree Days 14    
Growing Degree Days 2 (Base 50)    
Moisture  
Dew Point 45 °F    
Average Humidity 80    
Maximum Humidity 93    
Minimum Humidity 59    
Precipitation  
Precipitation 0.00 in - - ()
Sea Level Pressure  
Sea Level Pressure 30.23 in    
Wind  
Wind Speed 1 mph ()    
Max Wind Speed 4 mph    
Max Gust Speed -    
Visibility 6.2 miles    
Events      
Averages and records for this station are not official NWS values.
T = Trace of Precipitation, MM = Missing Value Source: Averaged Metar Reports

Daily Weather History Graph

Daily Weather History Graph

Search for Another Location

Airport or City:

Trip Planner

Search our weather history database for the weather conditions in past years. The results will help you decide how hot, cold, wet, or windy it might be!

Date:

Astronomy

Feb. 13, 2013 Rise Set
Actual Time 8:15 AM CET 7:01 PM CET
Civil Twilight 7:48 AM CET 7:27 PM CET
Nautical Twilight 7:17 AM CET 7:58 PM CET
Astronomical Twilight 6:47 AM CET 8:28 PM CET
Moon 9:42 AM CET (2/13) 10:43 PM CET (2/13)
Length of Visible Light 11h 39m
Length of Day
10h 46m
Waxing Crescent, 12% of the Moon is Illuminated
Feb 13
Waxing Crescent
Feb 17
First Quarter
Feb 25
Full
Mar 4
Last Quarter
Mar 11
New

Hourly Weather History & Observations

Time (CET) Temp. Windchill Dew Point Humidity Pressure Visibility Wind Dir Wind Speed Gust Speed Precip Events Conditions
12:00 AM 42.8 °F - 37.4 °F 81% 30.21 in 6.2 mi Calm Calm - N/A   Partly Cloudy
12:30 AM 42.8 °F - 39.2 °F 87% 30.21 in 6.2 mi Calm Calm - N/A   Partly Cloudy
1:00 AM 41.0 °F - 37.4 °F 87% 30.21 in - Calm Calm - N/A   Clear
4:30 AM 42.8 °F - 39.2 °F 87% 30.21 in 6.2 mi Calm Calm - N/A   Scattered Clouds
5:00 AM 42.8 °F - 41.0 °F 93% 30.21 in 6.2 mi SE 1.2 mph - N/A   Scattered Clouds
5:30 AM 44.6 °F - 42.8 °F 93% 30.21 in 6.2 mi Calm Calm - N/A   Mostly Cloudy
6:00 AM 44.6 °F - 41.0 °F 87% 30.21 in 6.2 mi Variable 2.3 mph - N/A   Mostly Cloudy
6:30 AM 44.6 °F 43.1 °F 42.8 °F 93% 30.21 in 6.2 mi South 3.5 mph - N/A   Mostly Cloudy
7:00 AM 44.6 °F 43.1 °F 42.8 °F 93% 30.21 in 6.2 mi South 3.5 mph - N/A   Mostly Cloudy
7:30 AM 44.6 °F - 42.8 °F 93% 30.21 in 6.2 mi Variable 1.2 mph - N/A   Mostly Cloudy
8:00 AM 44.6 °F 43.1 °F 41.0 °F 87% 30.21 in 6.2 mi South 3.5 mph - N/A   Mostly Cloudy
8:30 AM 44.6 °F - 41.0 °F 87% 30.24 in 6.2 mi Variable 1.2 mph - N/A   Scattered Clouds
9:00 AM 42.8 °F - 41.0 °F 93% 30.24 in 6.2 mi Calm Calm - N/A   Mostly Cloudy
9:30 AM 44.6 °F - 42.8 °F 93% 30.24 in 6.2 mi Calm Calm - N/A   Mostly Cloudy
10:00 AM 46.4 °F - 44.6 °F 93% 30.24 in 6.2 mi Variable 1.2 mph - N/A   Mostly Cloudy
10:30 AM 48.2 °F - 44.6 °F 87% 30.27 in 6.2 mi Variable 1.2 mph - N/A   Mostly Cloudy
11:00 AM 48.2 °F - 44.6 °F 87% 30.27 in 6.2 mi SSW 1.2 mph - N/A   Mostly Cloudy
11:30 AM 50.0 °F - 46.4 °F 87% 30.27 in 6.2 mi WSW 1.2 mph - N/A   Mostly Cloudy
12:00 PM 51.8 °F - 46.4 °F 82% 30.27 in 6.2 mi Variable 1.2 mph - N/A   Mostly Cloudy
12:30 PM 53.6 °F - 48.2 °F 82% 30.27 in 6.2 mi Variable 1.2 mph - N/A   Mostly Cloudy
1:00 PM 55.4 °F - 48.2 °F 77% 30.27 in 6.2 mi Variable 2.3 mph - N/A   Mostly Cloudy
1:30 PM 57.2 °F - 50.0 °F 77% 30.27 in 6.2 mi SSW 3.5 mph - N/A   Mostly Cloudy
2:00 PM 59.0 °F - 50.0 °F 72% 30.24 in 6.2 mi SSW 3.5 mph - N/A   Mostly Cloudy
2:30 PM 60.8 °F - 48.2 °F 63% 30.24 in 6.2 mi SW 3.5 mph - N/A   Partly Cloudy
3:00 PM 60.8 °F - 48.2 °F 63% 30.24 in 6.2 mi Variable 2.3 mph - N/A   Partly Cloudy
3:30 PM 60.8 °F - 48.2 °F 63% 30.21 in 6.2 mi Variable 2.3 mph - N/A   Partly Cloudy
4:00 PM 62.6 °F - 48.2 °F 59% 30.21 in 6.2 mi West 2.3 mph - N/A   Partly Cloudy
4:30 PM 62.6 °F - 48.2 °F 59% 30.21 in - West 1.2 mph - N/A   Clear
5:00 PM 62.6 °F - 48.2 °F 59% 30.21 in - Variable 2.3 mph - N/A   Clear
5:30 PM 62.6 °F - 48.2 °F 59% 30.21 in - Variable 1.2 mph - N/A   Clear
6:00 PM 62.6 °F - 48.2 °F 59% 30.21 in - Calm Calm - N/A   Clear
6:30 PM 62.6 °F - 48.2 °F 59% 30.21 in - Variable 1.2 mph - N/A   Clear
7:00 PM 60.8 °F - 50.0 °F 68% 30.21 in - Variable 1.2 mph - N/A   Clear
7:30 PM 57.2 °F - 48.2 °F 72% 30.21 in - Variable 1.2 mph - N/A   Clear
8:00 PM 55.4 °F - 48.2 °F 77% 30.21 in - SSE 3.5 mph - N/A   Clear
8:30 PM 53.6 °F - 48.2 °F 82% 30.24 in - SSE 3.5 mph - N/A   Clear
9:00 PM 55.4 °F - 50.0 °F 82% 30.24 in - South 3.5 mph - N/A   Clear
9:30 PM 51.8 °F - 48.2 °F 88% 30.24 in - South 3.5 mph - N/A   Clear
10:00 PM 50.0 °F - 46.4 °F 87% 30.24 in - SSE 3.5 mph - N/A   Clear
10:30 PM 50.0 °F - 46.4 °F 87% 30.24 in - ESE 1.2 mph - N/A   Clear
11:00 PM 48.2 °F - 46.4 °F 93% 30.24 in - SE 3.5 mph - N/A   Clear
11:30 PM 48.2 °F - 46.4 °F 93% 30.24 in - Variable 1.2 mph - N/A   Clear